Regional Weather Roundup
Issued by NWS

Home | Current Version | Previous Version | Text Only | Print | Product List | Glossary On
Versions: 1 2 3 4 5 6 7 8 9 10 11 12 13 14 15 16 17 18 19 20 21 22 23 24 25 26 27 28 29 30 31 32 33 34 35 36 37 38 39 40 41 42 43 44 45 46 47 48 49 50
641
ASUS45 KREV 081510
RWRNV
NEVADA REGIONAL WEATHER ROUNDUP
NATIONAL WEATHER SERVICE RENO NV
700 AM PST THU DEC 08 2016

NOTE: "FAIR" INDICATES FEW OR NO CLOUDS BELOW 12,000 FEET WITH NO
SIGNIFICANT WEATHER AND/OR OBSTRUCTIONS TO VISIBILITY.

NVZ001-003-004-081600-
WESTERN NEVADA

CITY           SKY/WX    TMP DP  RH WIND       PRES   REMARKS
RENO           FRZ RAIN  29  23  78 SW5       30.06S
CARSON CITY    CLOUDY    27  25  93 CALM      30.06S
MINDEN         CLOUDY    27  25  93 N3        30.05S
PYRAMID LAKE     N/A     30 N/A N/A SE13        N/A
FALLON         MOCLDY    26  23  88 CALM      30.09F
LOVELOCK       CLOUDY    25  21  85 N7        30.11R
HAWTHORNE        N/A    N/A N/A N/A CALM      30.10S
$$

NVZ002-CAZ072-073-081600-
NORTHERN AND CENTRAL SIERRA

CITY           SKY/WX    TMP DP  RH WIND       PRES   REMARKS
S. LAKE TAHOE  LGT RAIN  40  36  86 SE7       30.06R
TRUCKEE        RAIN      37  36  93 S5        30.04R
SQUAW VLY 8000   N/A     32  32 100 SW20        N/A
SUSANVILLE     LGT SNOW N/A N/A N/A CALM      30.05
MAMMOTH LAKES  MOCLDY    22  22  99 W3        30.15S
BRIDGEPORT       N/A     42  32  67 SW15G23   30.01R
$$

NVZ030-031-036-081600-
NORTHERN NEVADA

CITY           SKY/WX    TMP DP  RH WIND       PRES   REMARKS
ELKO           LGT SNOW  19  15  84 NE8       30.15S FOG
WINNEMUCCA     LGT SNOW  21  20  96 NE12      30.09F FOG
WENDOVER       CLOUDY    19   9  63 CALM      30.27S
$$

NVZ035-037-081600-
CENTRAL NEVADA

CITY           SKY/WX    TMP DP  RH WIND       PRES   REMARKS
ELY            CLOUDY    20  12  71 CALM      30.15S
EUREKA           N/A     22  17  81 S5        30.12R
$$

NVZ013-014-081600-
SOUTH CENTRAL NEVADA

CITY           SKY/WX    TMP DP  RH WIND       PRES   REMARKS
TONOPAH        MOCLDY    26  12  55 NE3       30.17F
$$

NVZ017-020-022-081600-
SOUTHERN NEVADA

CITY           SKY/WX    TMP DP  RH WIND       PRES   REMARKS
LAS VEGAS      PTCLDY    37   8  30 SW3       30.26R
N. LAS VEGAS   CLEAR     35  10  35 CALM      30.26R
NELLIS AFB     CLEAR     31   5  32 CALM      30.27R
HENDERSON      CLEAR     31   8  38 S7        30.27R
MERCURY        PTCLDY    28   6  39 NE5       30.22R
$$




USA.gov is the U.S. government's official web portal to all federal, state and local government web resources and services.